Flag for Austria Weather past 2 weeks in Traun, Upper Austria, Austria

Now
48 °F

Low clouds.


Feels Like: 48 °F
Forecast: 40 / 53 °F
Wind: 2 mph from North

Location: Linz / Hoersching-Flughafen

Current Time: Oct 24, 2014 at 10:00:54 AM

Latest Report: Oct 24, 2014 at 9:20 AM


Visibility: 6 mi

Pressure: 30.21 "Hg

Humidity: 87%

Dew point: 45 °F

Location of TraunLocation

Historic Weather in Traun — Graph

°F

Traun temperature yesterday

Maximum temperature yesterday: 52 °F (at 4:20 PM)
Minimum temperature yesterday: 39 °F (at 1:20 AM)
Average temperature yesterday: 47 °F

Past Weeks' High & Low Weather Summary

 TemperatureHumidityPressure
High70 °F (Oct 12, 2:50 PM)100% (Oct 9, 9:50 PM)30.30 "Hg (Oct 9, 9:50 PM)
Low39 °F (Oct 23, 1:20 AM)53% (Oct 14, 3:50 PM)29.59 "Hg (Oct 21, 10:50 PM)
Average55 °F90%29.97 "Hg
* Reported Oct 9 8:20 AM — Oct 24 8:50 AM, Traun, Weather by CustomWeather, © 2014

Note: Actual official high and low records may vary slightly from our data, if they occured in-between our weather recording intervals... More about our weather records

Advertising

Traun weather history for previous 24 hours

 ConditionsComfort  
Time TempWeatherWind HumidityBarometerVisibility
8:50 AM
Oct 24
48 °FBroken clouds.3 mph87%30.21 "Hg5 mi
8:20 AM46 °FPartly cloudy.6 mph93%30.21 "Hg5 mi
7:50 AM46 °FPartly cloudy.8 mph93%30.18 "Hg4 mi
7:20 AM46 °FLight rain. Passing clouds.9 mph93%30.18 "Hg4 mi
6:50 AM48 °FLight rain. Passing clouds.7 mph87%30.18 "HgN/A
6:20 AM48 °FPassing clouds.5 mph87%30.18 "HgN/A
5:50 AM48 °FPassing clouds.6 mph87%30.18 "HgN/A
4:50 AM48 °FPartly cloudy.6 mph87%30.15 "HgN/A
4:20 AM48 °FPassing clouds.8 mph87%30.15 "HgN/A
3:50 AM48 °FPassing clouds.9 mph87%30.15 "HgN/A
3:20 AM48 °FPartly cloudy.13 mph87%30.15 "HgN/A
2:50 AM48 °FPassing clouds.10 mph87%30.18 "HgN/A
2:20 AM48 °FPassing clouds.9 mph87%30.18 "HgN/A
1:50 AM48 °FPartly cloudy.13 mph87%30.15 "HgN/A
1:20 AM48 °FPassing clouds.12 mph87%30.15 "HgN/A
12:50 AM48 °FPassing clouds.12 mph87%30.15 "HgN/A
12:20 AM48 °FPassing clouds.13 mph87%30.18 "HgN/A
11:50 PM
Oct 23
48 °FPassing clouds.9 mph87%30.18 "HgN/A
11:20 PM48 °FPartly cloudy.12 mph87%30.18 "HgN/A
10:50 PM48 °FPartly cloudy.10 mph94%30.18 "HgN/A
10:20 PM48 °FPartly cloudy.10 mph94%30.15 "HgN/A
9:50 PM48 °FPartly cloudy.10 mph87%30.15 "HgN/A
9:20 PM48 °FPassing clouds.14 mph94%30.15 "HgN/A
8:50 PM50 °FPassing clouds.13 mph88%30.15 "HgN/A
8:20 PM50 °FPassing clouds.12 mph82%30.12 "HgN/A
7:50 PM50 °FPassing clouds.13 mph88%30.12 "HgN/A
7:20 PM50 °FPassing clouds.12 mph88%30.12 "HgN/A
6:50 PM50 °FPartly sunny.9 mph88%30.09 "HgN/A
6:20 PM52 °FPartly sunny.9 mph82%30.09 "HgN/A
5:50 PM50 °FBroken clouds.10 mph88%30.09 "HgN/A
5:20 PM50 °FBroken clouds.14 mph88%30.07 "HgN/A
4:50 PM52 °FBroken clouds.9 mph82%30.07 "HgN/A
4:20 PM52 °FBroken clouds.10 mph82%30.07 "HgN/A
3:50 PM50 °FBroken clouds.9 mph94%30.04 "HgN/A
3:20 PM50 °FLight rain. Broken clouds.6 mph94%30.04 "HgN/A
2:50 PM50 °FLight rain. Broken clouds.8 mph94%30.01 "HgN/A
2:20 PM50 °FRain. Broken clouds.10 mph94%30.01 "HgN/A
1:50 PM50 °FLight rain. Broken clouds.12 mph88%30.01 "HgN/A
1:20 PM50 °FPartly sunny.13 mph88%29.98 "HgN/A
12:50 PM50 °FBroken clouds.12 mph88%29.98 "HgN/A
12:20 PM50 °FBroken clouds.10 mph94%29.98 "HgN/A
11:50 AM50 °FBroken clouds.10 mph94%29.98 "HgN/A
11:20 AM50 °FBroken clouds.10 mph94%29.95 "HgN/A
10:50 AM50 °FBroken clouds.10 mph88%29.95 "HgN/A
10:20 AM50 °FLight rain. Broken clouds.10 mph88%29.92 "HgN/A
Weather by CustomWeather, © 2014

See weather overviewHow to use our weather pages